Location: Zagreb
(45.8000°N, 16.0000°E)
Time: 18:11:20
(UTC+01:00)

Tiros 1 despin weight - Pass Details

Date: 05 December 2023
Orbit: 581 x 624 km, 48.2° (Epoch: 02 March)

Event Time Altitude Azimuth Distance (km) Brightness Sun altitude
Rises 16:42:45 0° 199° (SSW) 2,802 ? -5.5°
Reaches altitude 10° 16:45:39 10° 179° (S) 1,898 ? -6.0°
Maximum altitude 16:48:31 17° 138° (SE) 1,479 ? -6.4°
Drops below altitude 10° 16:51:22 10° 96° (E) 1,896 ? -6.9°
Enters shadow 16:52:21 - 88° (E) 2,171 ? -7.0°
